Location: Gajan
(43.0218°N, 1.1244°E)
Time: 16:12:41
(UTC+00:00)

Lacrosse 5 rocket - Pass Details

Date: 22 April 2021
Orbit: 460 x 634 km, 57.0° (Epoch: 12 May)

Event Time Altitude Azimuth Distance (km) Brightness Sun altitude
Rises 22:20:20 0° 317° (NW) 2,787 6.0 -30.5°
Reaches altitude 10° 22:22:42 10° 327° (NNW) 1,916 5.0 -30.7°
Enters shadow 22:25:31 29° 0° (N) 1,106 3.3 -30.9°
